Location: Aathal
(47.3351°N, 8.7700°E)
Time: 21:26:38
(UTC+00:00)

Daily predictions for brighter satellites

Satellite Brightness Start Highest point End
(mag) Time Altitude Azimuth Time Altitude Azimuth Time Altitude Azimuth
Cosmos 2016 Rocket 4.2 17:16:18 10° SSE 17:22:06 49° E 17:27:59 10° NNE
YAOGAN 1 2.9 17:22:30 10° SE 17:26:37 45° ENE 17:30:45 10° N
Cosmos 2082 Rocket 3.1 17:23:34 10° NW 17:29:03 54° WSW 17:34:33 10° S
STARLINK-33 3.4 17:27:55 10° SW 17:31:07 49° SE 17:34:17 10° ENE
STARLINK-40 4.5 17:27:32 10° SSW 17:31:08 32° SE 17:34:44 10° ENE
CENTAUR R/B 4.4 17:25:43 10° WNW 17:31:09 24° N 17:37:13 10° NE
SKYMED 2 3.6 17:27:40 10° NNE 17:32:01 67° ESE 17:36:20 10° S
STARLINK-44 4.5 17:29:08 10° SSW 17:32:46 33° SE 17:36:24 10° ENE
STARLINK-66 3.3 17:29:44 10° SW 17:32:55 52° SE 17:36:08 10° ENE
STARLINK-55 3.3 17:30:46 10° SW 17:33:57 54° SSE 17:37:11 10° ENE
STARLINK-37 4.3 17:30:50 10° SSW 17:34:31 35° SE 17:38:13 10° ENE
Cosmos 1633 Rocket 3.9 17:31:08 10° SSE 17:34:49 28° E 17:38:32 10° NNE
FALCON 9 DEB 4.1 17:31:48 10° WNW 17:35:00 34° N 17:38:06 11° ENE
STARLINK-28 3.1 17:32:26 10° SW 17:35:39 60° SSE 17:38:51 10° ENE
STARLINK-36 4.4 17:32:24 10° SSW 17:36:04 35° SE 17:39:40 10° ENE
STARLINK-26 3.3 17:34:14 10° WSW 17:37:42 73° NNW 17:41:10 10° ENE
STARLINK-68 4.2 17:34:08 10° SSW 17:37:53 39° SE 17:41:29 11° ENE
Cosmos 1666 Rocket 4.1 17:34:30 10° SSE 17:38:37 37° E 17:42:46 10° NNE
ATLAS 3B R/B 4.4 17:33:38 10° WNW 17:38:41 22° NNW 17:43:47 10° NE
STARLINK-63 4.2 17:35:42 10° SSW 17:39:26 38° SE 17:42:58 11° ENE
STARLINK-29 4.1 17:36:24 10° WNW 17:39:33 33° N 17:42:25 12° ENE
CZ-4 R/B 4.4 17:35:30 10° SSE 17:39:37 87° E 17:43:47 10° NNW
STARLINK-35 4.2 17:37:16 10° SSW 17:41:00 38° SE 17:44:26 12° ENE
Cosmos 292 Rocket 3.8 17:37:31 10° SSW 17:42:20 86° ESE 17:47:10 10° NNE
STARLINK-51 4.2 17:38:55 10° SSW 17:42:40 39° SE 17:46:03 12° ENE
CZ-4 R/B 1.4 17:39:10 10° SSE 17:43:23 84° ENE 17:47:35 10° NNW
STARLINK-75 3.3 17:40:01 10° SW 17:43:24 58° SE 17:46:25 12° ENE
STARLINK-30 4.2 17:40:32 10° SSW 17:44:18 40° SE 17:47:38 13° ENE
Lacrosse 5 rocket 2.8 17:40:49 10° W 17:44:53 34° NNW 17:49:05 10° NE
Meteor 1-27 Rocket 4.0 17:39:45 10° N 17:45:05 46° ENE 17:50:26 10° SE
STARLINK-72 4.1 17:42:09 10° SSW 17:45:56 41° SE 17:49:13 13° ENE
Cosmos 1939 Rocket 3.0 17:42:34 10° SSE 17:46:38 59° ENE 17:50:43 10° N
STARLINK-1023 4.2 17:44:07 10° SSW 17:46:39 24° SE 17:48:28 15° E
STARLINK-50 4.1 17:43:47 10° SSW 17:47:35 42° SE 17:50:49 14° ENE
STARLINK-22 3.4 17:44:55 10° SW 17:48:15 51° SE 17:50:57 14° ENE
STARLINK-59 4.0 17:45:29 10° SW 17:49:19 45° SE 17:52:31 14° ENE
STARLINK-41 3.3 17:46:20 10° SW 17:49:40 56° SE 17:52:22 15° ENE
STARLINK 1040 3.7 17:47:14 10° SSW 17:49:43 28° SE 17:51:18 17° E
STARLINK-52 4.1 17:46:36 10° WNW 17:49:45 34° N 17:52:08 15° ENE
Cosmos 2173 Rocket 4.4 17:43:46 10° SSW 17:50:08 74° W 17:56:33 10° N
STARLINK-42 3.0 17:46:59 10° SW 17:50:12 64° SSE 17:52:46 15° ENE
STARLINK-56 4.0 17:47:02 10° SW 17:50:52 45° SE 17:53:59 15° ENE
STARLINK-73 4.0 17:48:41 10° SW 17:52:32 46° SE 17:55:35 15° ENE
Aureole 2 Rocket 3.5 17:51:58 10° SE 17:53:25 16° ESE 17:53:25 16° ESE
STARLINK-38 3.9 17:50:20 10° SW 17:54:11 47° SE 17:57:11 16° ENE
STARLINK-1014 4.3 17:51:56 10° SSW 17:54:50 26° SE 17:56:35 17° E
STARLINK-1007 3.9 17:52:15 10° SSW 17:55:00 29° SE 17:56:36 18° E
Cosmos 1633 3.0 17:51:44 10° SSW 17:55:17 66° W 17:58:55 10° N
STARLINK-65 3.9 17:51:56 10° SW 17:55:48 49° SE 17:58:44 16° ENE
CSL-04 Rocket 3.7 17:50:31 10° SSE 17:56:03 80° ENE 18:01:35 10° NNW
STARLINK-53 3.8 17:53:39 10° SW 17:57:33 52° SE 18:00:27 17° ENE
Cosmos 1238 Rocket 4.2 17:51:22 10° S 17:57:38 86° W 18:04:21 10° N
STARLINK-61 3.4 17:53:51 10° SW 17:57:45 81° SSE 18:00:50 16° ENE
ARGOS 4.1 17:55:24 10° ESE 17:59:51 27° ENE 18:04:18 10° N
Okean-O 4.3 17:56:44 10° SSW 18:00:52 38° W 18:05:02 10° NNW
Orbus 7S? 4.3 17:51:58 10° SW 18:01:33 86° SE 18:05:06 14° NE
STARLINK-48 4.0 18:00:09 10° W 18:03:57 52° NNW 18:06:53 16° NE
Cosmos 2242 Rocket 4.5 18:00:32 10° N 18:04:29 29° ENE 18:08:26 10° SE
STARLINK-1010 3.6 18:01:42 10° SSW 18:04:34 35° SE 18:05:51 24° E
USA 116 3.7 18:01:46 10° NNE 18:05:33 81° ESE 18:09:49 10° SSW
Cosmos 2278 Rocket 4.1 18:02:03 10° WSW 18:06:47 27° NW 18:11:33 10° N
STARLINK-60 3.1 18:04:31 10° WNW 18:07:47 60° NNE 18:09:30 25° E
NOSS 3-1 (C) 3.3 18:02:26 10° SSW 18:07:49 60° ESE 18:14:03 10° NE
IRS-1A Rocket 4.5 18:03:34 10° SE 18:08:49 47° ENE 18:14:04 10° N
CSL-04 Debris 4.3 18:03:30 10° SSE 18:08:57 81° WSW 18:14:28 10° NNW
Cosmos 1607 4.2 18:02:55 10° NW 18:09:12 72° WSW 18:15:31 10° SSE
NOAA 11 4.4 18:04:23 10° S 18:09:50 74° WSW 18:15:18 10° NNW
STARLINK-1008 3.4 18:09:36 10° SW 18:12:37 42° SE 18:13:44 29° E
STARLINK-58 3.1 18:09:47 10° SW 18:13:20 75° SSE 18:15:14 25° ENE
STARLINK-1016 3.4 18:10:39 10° SW 18:13:39 42° SE 18:14:39 31° E
Cosmos 1777 Rocket 3.9 18:09:10 10° NNW 18:14:29 76° ENE 18:19:45 10° SSE
STARLINK-1025 3.3 18:11:47 10° SW 18:14:48 43° SE 18:15:48 31° E
STARLINK-62 3.1 18:11:29 10° SW 18:15:01 79° SSE 18:16:52 26° ENE
STARLINK-1017 3.3 18:12:54 10° SW 18:15:55 44° SE 18:16:51 33° E
STARLINK-34 3.1 18:13:04 10° WSW 18:16:37 81° SSE 18:18:24 27° ENE
Sich 1 3.5 18:13:22 10° SSW 18:17:37 62° WNW 18:21:53 10° N
COSMOS 2487 4.5 18:15:33 10° NNE 18:16:45 14° NE 18:16:45 14° NE
Cosmos 1470 Rocket 3.8 18:14:28 10° SSE 18:18:35 44° E 18:22:45 10° NNE
SJ-11-01 4.4 18:14:04 10° SE 18:18:36 52° ENE 18:23:09 10° N
STARLINK-1048 3.2 18:16:13 10° SW 18:19:17 47° SE 18:20:07 36° E
STARLINK-1029 3.6 18:16:48 10° SSW 18:19:45 36° SE 18:20:19 33° ESE
COSMO-SKYMED 1 4.0 18:15:54 10° N 18:19:59 40° WNW 18:24:03 10° SW
STARLINK-1028 3.2 18:17:15 10° SW 18:20:19 49° SE 18:21:09 37° E
STARLINK-1049 3.2 18:17:21 10° SW 18:20:25 48° SE 18:21:13 37° E
STARLINK-1021 3.2 18:18:26 10° SW 18:21:32 50° SE 18:22:19 38° E
STARLINK-1051 3.2 18:18:30 10° SW 18:21:35 50° SE 18:22:23 38° E
STARLINK-1019 3.1 18:19:38 10° SW 18:22:44 51° SE 18:23:29 40° E
STARLINK-1012 3.1 18:20:52 10° SW 18:23:58 52° SE 18:24:40 42° E
Cosmos 1862 Rocket 3.4 18:19:56 10° N 18:24:17 72° E 18:28:36 10° SSE
Cosmos 44 3.2 18:21:02 10° NNW 18:25:21 54° NE 18:27:30 28° ESE
FREGAT/IRIS 4.5 18:27:20 16° NNE 18:27:20 16° NNE 18:28:06 10° N
STARLINK-1026 3.0 18:23:17 10° SW 18:26:25 55° SE 18:27:02 45° E
STARLINK-1013 3.0 18:24:33 10° SW 18:27:40 57° SSE 18:28:15 47° ESE
STARLINK-24 3.4 18:24:34 10° WSW 18:28:35 82° SSE 18:30:20 33° ENE
STARLINK-1009 3.0 18:25:46 10° SW 18:28:54 58° SSE 18:29:26 49° ESE
STARLINK-1015 3.0 18:27:01 10° SW 18:30:10 59° SSE 18:30:40 51° ESE
Cosmos 1943 Rocket 2.1 18:25:17 10° SSW 18:30:51 78° ESE 18:36:26 10° NNE
Cosmos 1725 Rocket 4.4 18:25:25 10° SSW 18:31:32 65° WNW 18:37:43 10° N
HJ-1C 3.4 18:29:37 10° S 18:32:55 81° WSW 18:36:14 10° NNW
SJ-6B 3.4 18:34:18 34° NE 18:34:18 34° NE 18:37:21 10° N
STARLINK-81 3.4 18:32:55 10° WSW 18:36:57 86° SSE 18:38:19 40° ENE
STARLINK-54 3.5 18:34:46 10° WSW 18:38:47 87° NW 18:40:09 41° ENE
SL-4 R/B 4.1 18:34:59 10° W 18:38:59 27° SW 18:42:48 10° SSE
STARLINK-1047 4.5 18:35:40 10° SSW 18:39:18 32° SE 18:39:18 32° SE
STARLINK-1035 4.4 18:35:45 10° SSW 18:39:37 35° SE 18:39:48 35° SE
SL-27 R/B 3.1 18:36:40 10° NNW 18:39:57 51° WSW 18:43:10 10° S
NOSS 2-3 (E) 3.9 18:36:05 10° SSW 18:40:11 45° ESE 18:41:17 38° E
STARLINK-77 3.4 18:36:14 10° WSW 18:40:16 90° ESE 18:41:30 43° ENE
Cosmos 1703 Rocket 4.0 18:36:18 10° N 18:40:30 40° ENE 18:40:43 39° E
STARLINK-25 3.4 18:37:53 10° WSW 18:41:55 89° NNW 18:43:06 45° ENE
ADEOS Rocket 3.6 18:34:15 10° NNE 18:42:02 85° WNW 18:49:46 10° SSW
Cosmos 1464 Rocket 4.3 18:36:10 10° SSE 18:42:04 43° E 18:48:03 10° NNE
BREEZE-M DEB (TANK) 3.3 18:39:40 10° WNW 18:42:27 73° SSW 18:45:03 30° ESE
STARLINK-1020 4.5 18:39:41 10° SSW 18:43:06 32° SSE 18:43:06 32° SSE
STARLINK-71 3.5 18:39:44 10° WSW 18:43:46 82° NNW 18:44:55 45° NE
Cosmos 2285 Rocket 3.9 18:37:40 10° NNW 18:44:04 77° ENE 18:50:08 12° SSE
Cosmos 1340 2.5 18:40:21 10° S 18:44:06 74° E 18:47:52 10° NNE
STARLINK-79 3.5 18:41:11 10° WSW 18:45:12 85° NNW 18:46:16 48° ENE
STARLINK-78 3.5 18:42:51 10° WSW 18:46:54 83° NNW 18:47:53 50° NE
Nadezhda 4 Rocket 4.5 18:41:33 10° N 18:47:19 37° ENE 18:48:26 34° E
BREEZE-M DEB (TANK) 2.9 18:45:22 10° WNW 18:47:39 57° N 18:47:39 57° N
STARLINK-64 3.5 18:44:36 10° WSW 18:48:10 61° NNW 18:48:49 50° NNE
H-2A R/B 2.0 18:42:55 10° SSE 18:48:13 71° ENE 18:53:39 10° N
STARLINK-1052 4.4 18:44:34 10° SSW 18:47:54 34° SSE 18:47:54 34° SSE
STARLINK-57 3.5 18:44:35 10° WSW 18:48:37 79° NNW 18:49:33 51° NE
USA 234 3.8 18:45:38 27° ENE 18:48:46 45° NNE 18:54:54 10° NW
STARLINK-1027 4.1 18:46:07 10° SSW 18:50:06 44° SE 18:50:06 44° SE
STARLINK-49 3.5 18:46:09 10° WSW 18:50:11 80° NNW 18:51:02 54° NE
STARLINK-27 3.5 18:47:50 10° WSW 18:51:52 78° NNW 18:52:39 55° NE
Ariane Rocket 3.2 18:47:41 10° S 18:52:47 74° WSW 18:57:54 10° NNW
STARLINK-74 3.5 18:49:28 10° WSW 18:53:29 77° NNW 18:54:13 57° NE
STARLINK-80 4.5 18:50:07 10° WNW 18:53:39 34° N 18:54:14 32° NNE
Lacrosse 4 Rocket 3.5 18:50:18 10° WSW 18:53:51 25° NW 18:57:30 10° NNE
NOSS 2-3 (D) 3.7 18:50:46 10° SSW 18:54:57 56° ESE 18:55:25 53° E
Okean 1-7 3.6 18:50:51 10° N 18:54:06 40° NE 18:54:06 40° NE
STARLINK-39 3.6 18:51:08 10° WSW 18:55:10 75° NNW 18:55:49 59° NE
STARLINK-43 4.4 18:51:55 10° WNW 18:55:20 34° N 18:55:29 33° N
Cosmos 921 Rocket 3.8 18:51:05 10° SW 18:55:32 55° WNW 18:59:59 10° NNE
USA 229 DEB 3.8 18:50:08 10° SW 18:56:42 74° NW 19:03:04 13° NE
USA 229 3.8 18:50:14 10° SW 18:56:48 74° NW 19:03:08 13° NE
STARLINK-31 3.6 18:52:48 10° WSW 18:56:50 73° NNW 18:57:25 60° NNE
Cosmos 724 4.2 18:52:16 10° NW 18:58:06 89° SW 19:00:58 32° SE
STARLINK-1033 4.4 18:54:20 10° SSW 18:57:25 36° S 18:57:25 36° S
BREEZE-M DEB (TANK) 4.4 18:24:47 10° WSW 18:58:17 82° N 19:01:29 35° ENE
STARLINK-69 3.7 18:54:38 10° WSW 18:58:40 69° NNW 18:59:13 58° NNE
CZ-2C R/B 3.2 18:54:04 15° SSE 18:59:01 73° ENE 19:04:47 10° N
Cosmos 2034 Rocket 4.3 19:00:12 41° E 19:00:12 41° E 19:05:38 10° NNE
SJ 16-02 2.6 18:56:05 10° N 18:58:44 27° NNE 18:58:44 27° NNE
STARLINK-21 3.6 18:56:08 10° WSW 19:00:09 70° NNW 19:00:37 62° NNE
STARLINK-45 3.7 18:58:01 10° WSW 19:02:01 65° NNW 19:02:27 59° NNE
Cosmos 1346 Rocket 2.7 18:58:03 10° S 19:02:04 87° W 19:06:04 10° N
STARLINK-70 3.7 18:59:35 10° WSW 19:03:35 65° NNW 19:03:57 61° N
NOSS 3-1 (A) 3.2 18:58:11 10° SW 19:03:44 88° SE 19:07:45 24° NE
STARLINK-76 3.7 19:01:07 10° WSW 19:05:07 66° NNW 19:05:23 64° N
Cosmos 2369 Rocket 2.3 18:59:33 10° SSW 19:05:12 76° WNW 19:10:56 10° NNE
MOS 1 4.3 19:00:18 10° SSE 19:05:58 80° WSW 19:11:40 10° NNW
STARLINK-23 3.7 19:02:46 10° WSW 19:06:47 65° NNW 19:06:58 64° N
Cosmos 1833 4.1 19:01:16 10° NNW 19:07:04 87° ENE 19:09:23 38° SSE
STARLINK-33 4.3 19:04:26 10° W 19:07:07 37° NW 19:07:07 37° NW
STARLINK-32 3.7 19:04:28 10° WSW 19:08:28 64° NNW 19:08:35 63° N
STARLINK-66 4.4 19:06:17 10° W 19:08:53 36° NW 19:08:53 36° NW
STARLINK-40 3.8 19:06:07 10° WSW 19:10:06 63° NNW 19:10:09 63° NNW
Cosmos 1656 Rocket 3.6 19:04:47 10° S 19:10:11 61° ESE 19:10:50 56° E
STARLINK-55 4.5 19:07:20 10° W 19:09:53 35° NW 19:09:53 35° NW
STARLINK-44 3.8 19:07:45 10° WSW 19:11:44 62° NNW 19:11:44 62° NNW
FALCON 9 DEB 4.1 19:08:52 10° WNW 19:11:26 47° WNW 19:11:26 47° WNW
STARLINK-37 3.9 19:09:33 10° WSW 19:13:28 59° NNW 19:13:28 59° NNW
Cosmos 990 Rocket 4.3 19:09:35 10° NNW 19:14:02 49° NE 19:14:02 49° NE
STARLINK-36 3.9 19:11:06 10° WSW 19:14:55 59° NNW 19:14:55 59° NNW
Meteor 1-18 Rocket 4.2 19:10:10 10° N 19:16:09 76° ENE 19:17:55 47° SSE
STARLINK-29 4.4 19:13:09 10° WNW 19:15:27 39° WNW 19:15:27 39° WNW
Cosmos 1933 Rocket 3.9 19:12:32 10° SSW 19:16:55 64° WNW 19:21:18 10° N
STARLINK-68 4.0 19:12:58 10° W 19:16:45 55° NNW 19:16:45 55° NNW
Cosmos 44 Rocket 4.3 19:12:37 10° NNW 19:16:02 32° NNE 19:16:02 32° NNE
SL-08 RB Rocket 3.7 19:17:47 69° NNE 19:17:47 69° NNE 19:21:49 10° N
Cosmos 1937 Rocket 4.3 19:12:30 10° N 19:16:26 37° NNE 19:16:26 37° NNE
STARLINK-63 4.1 19:14:32 10° W 19:18:14 55° NW 19:18:14 55° NW
STARLINK-35 4.1 19:16:05 10° W 19:19:41 54° NW 19:19:41 54° NW
STARLINK-51 4.2 19:17:46 10° W 19:21:19 52° NW 19:21:19 52° NW
STARLINK-30 4.3 19:19:26 10° W 19:22:53 50° NW 19:22:53 50° NW
Cosmos 2263 4.3 19:17:36 10° SSW 19:23:23 76° WNW 19:28:01 17° NNE
CENTAUR R/B 4.2 19:18:10 10° NW 19:24:27 28° NNE 19:26:39 25° NE
STARLINK-72 4.4 19:21:05 10° W 19:24:29 49° NW 19:24:29 49° NW
Lacrosse 5 rocket 3.2 19:21:25 10° NW 19:25:09 24° N 19:25:18 24° N
STARLINK-50 4.4 19:22:45 10° W 19:26:04 47° NW 19:26:04 47° NW
NOSS 2-3 (C) 3.8 19:24:50 10° SW 19:29:03 75° WNW 19:29:03 75° WNW
SPOT 3 Rocket 3.5 19:28:41 68° S 19:29:23 83° WSW 19:34:38 10° NNW
ATLAS 3B R/B 4.2 19:26:58 10° NW 19:31:53 21° NNE 19:33:27 19° NNE
MetOp-A 4.0 19:33:18 83° NNE 19:33:18 83° NNE 19:38:32 10° NNW
Meteor 1-20 Rocket 4.3 19:29:00 10° SSW 19:34:26 71° WNW 19:39:59 10° N
ARGOS Delta rocket 4.2 19:35:43 53° NW 19:35:43 53° NW 19:39:15 10° NNW
ARGOS 3.8 19:36:21 21° SSW 19:39:48 52° W 19:45:07 10° NNW
Resurs 01 Rocket 3.5 19:42:59 22° N 19:42:59 22° N 19:44:38 10° N
Cosmos 2297 Rocket 3.8 19:43:01 10° N 19:45:46 22° NNE 19:45:46 22° NNE
USA 238 DEB 4.5 19:41:47 10° NW 19:48:21 40° NNE 19:48:21 40° NNE
USA 238 4.5 19:41:53 10° NW 19:48:25 39° NNE 19:48:25 39° NNE
USA 267 3.7 19:57:58 48° SSW 19:57:58 48° SSW 20:02:42 10° SW
Cosmos 1898 Rocket 4.3 19:54:17 10° NNW 19:58:05 48° NW 19:58:05 48° NW
Cosmos 2227 Rocket 4.0 20:00:47 10° NNW 20:03:09 22° N 20:03:09 22° N
Cosmos 1943 Rocket 4.3 20:10:56 10° W 20:15:14 22° NW 20:19:32 10° N
USA 234 3.7 20:32:59 56° NW 20:32:59 56° NW 20:38:00 10° NW
SJ 16-02 4.2 20:34:49 10° NW 20:35:45 15° NW 20:35:45 15° NW
CENTAUR R/B 4.0 21:09:01 10° NW 21:13:50 40° NNW 21:13:50 40° NNW
ATLAS 3B R/B 4.5 21:17:58 10° NNW 21:20:42 24° NNW 21:20:42 24° NNW
